   Observers K. Korlević, E. Pettarin. Measurer E. Pettarin. 1.0-m f/2.9
   reflector + CCD.
(L33) Ananjev  (N47.736097 E29.954600)  Ukraine.
(T05) ATLAS-HKO, Haleakala  (N20.707573 W156.257010)  US/Hawaii.  Observers
   L. Denneau, A. Heinze, H. Weiland, J. Tonry, H. Flewelling, A.
   Fitzsimmons, D. Young, B. Stalder. Measurers L. Denneau, A. Heinze, J.
   Tonry. 0.5-m f/2.0 Schmidt + CCD.
(T08) ATLAS-MLO, Mauna Loa  (N19.535772 W155.576400)  US/Hawaii.  Observers
   L. Denneau, A. Heinze, H. Weiland, J. Tonry, H. Flewelling, A.
   Fitzsimmons, D. Young, B. Stalder. Measurers L. Denneau, A. Heinze, J.
   Tonry. 0.5-m f/2.0 Schmidt + CCD.
(U69) iTelescope SRO Observatory, Auberry  (N37.070390 W119.413000)
   US/California. 0.61-m f/6.5 astrograph + CCD.

Orbital elements:  A10eGy8
   Perihelion 2020 Dec 2.078327 +/- 0.394 TT =  1:52:47 (JD 2459185.578327)
Epoch 2019 Jul 11.0 TT = JDT 2458675.5   Earth MOID: 0.7215   Ma: 0.0995
M 359.99301274 +/- 0.016            (J2000 ecliptic)          AutoNEOCP
n   0.00001369 +/- 2.01e-5          Peri.  193.48865 +/- 0.10
a1729.90814 +/- 3360                Node    13.58522 +/- 0.018
e   0.9990148 +/- 0.00111           Incl.   82.42467 +/- 0.0055
P  71950                   H 10.4   G  0.15   U  5.5  
q 1.70418813 +/- 0.00361    Q 3458.11209 +/- 4246
From 101 observations 2019 June 10-July 11; mean residual 0".43
Residuals in arcseconds: 
190610 T05  .06+  .36-    190706 L33  .17-  .47+    190709 G40  .16+  .18-    
190610 T05  .53-  .61-    190706 L33  .32-  .71+    190709 G40  .12+  .26-    
190610 T05  .10-  .00     190706 L33  .43-  .53+    190709 585  .10+  .11-    
190610 T05  .61+  .74-    190706 K88  .59-  .42+    190709 585  .05+  .09-    
190610 T05  .45-  .50-    190706 K88  .45-  .34+    190709 585  .09+  .09-    
190611 F65  .13+  .56+    190706 K88  .25-  .37+    190709 585  .13+  .08+    
190611 F65  .10+  .57+    190706 K88  .26-  .50+    190709 585  .13+  .02+    
190611 F65  .06+  .38+    190706 K88  .49-  .46+    190709 585  .08+  .04-    
190611 F65  .08+  .59+    190706 K88  .09-  .63+    190709 585  .07+  .00     
190705 T08  .15-  1.0+    190706 K88  .44-  .55+    190709 K88  .02+  .47+    
190705 T08  .13-  .02+    190706 K88  .39-  .28+    190709 K88  .07-  .39+    
190705 T08  .15-  .06-    190706 K88  .05-  .21+    190710 K88  .25-  .41+    
190705 T08  .69+  .00     190706 K88  .45-  .54+    190710 A77  .13-  .08+    
190705 K88  .18-  .30+    190707 U69  .03-  .68-    190710 A77  .17-  1.0-    
190705 K88  .19-  .28+    190707 U69  .34+  .61-    190710 595  .16-  .41-    
190705 K88  .01-  .16+    190707 K88  .24-  .34+    190710 595  .29+  .22-    
190705 K88  .18-  .25+    190707 K88  .35-  .45+    190710 595  .38+  .97+    
190705 K88  .06-  .23+    190707 K88  .07-  .47+    190710 J57  .55-  1.7-    
190705 204  .18+  .15+    190707 K88  .30-  .39+    190710 J57  .35-  1.9-    
190705 L01  .62+  .19-    190707 G40  .68+  .14+    190710 J57  .50-  1.8-    
190705 204  .13+  .38-    190707 G40  .31+  .69-    190710 K63  .44+  .47+    
190705 L01  .48+  .62-    190707 G40  .64+  .46-    190710 K63  .17+  .60+    
190705 204  .28+  .10+    190708 G40  .06-  .21+    190710 K63  .25+  .32+    
190705 K38  .01+  .35-    190708 G40  .14-  .02+    190710 C95  .38+  .16+    
190705 L01  .05-  .05-    190708 G40  .14+  .12+    190710 C95  .26-  .00     
190705 L01  .22+  .58-    190708 H06  .42-  .11+    190710 C95  .47+  .46+    
190706 L01  .25+  .48-    190708 H06  .14-  .12-    190710 C95  .02+  .11+    
190706 L01  .34+  .66-    190708 H06  .15-  .05+    190711 T08  .34+  .23+    
190706 K38  .18-  .01+    190708 104  .23-  .52-    190711 T08  .04+  1.0+    
190706 A17  .21+  .03-    190708 104  .11+  .32-    190711 T08  .20-  .02-    
190706 A17  .25-  .08-    190708 104  .27+  .69-    190711 T08  .08-  1.0+    
190706 K38  .23-  .33-    190708 L33  .05+  .66+    190711 L33  .18+  .00     
190706 A17  .25+  .25-    190708 L33  .22-  .61+    190711 L33  .44-  .66+    
190706 A17  .18-  .12-    190708 L33  .17+  .44+    

Ephemerides (geocentric):
Date (UTC) HH   RA              Dec         delta   r     elong  mag " sig PA
---- -- -- --  -------------   -----------  ------ ------ -----  --- ---- ---
2019 07 15 19  20 55 50.924   +83 35 56.46  5.9381 5.7510  74.5 18.7 .257  40
2019 07 15 20  20 55 33.799   +83 36 11.17  5.9376 5.7507  74.5 18.7 .259  40
2019 07 15 21  20 55 16.646   +83 36 25.83  5.9371 5.7503  74.5 18.7 .261  40
2019 07 15 22  20 54 59.466   +83 36 40.44  5.9366 5.7500  74.6 18.7 .263  40
2019 07 15 23  20 54 42.258   +83 36 55.00  5.9361 5.7496  74.6 18.7 .265  40
2019 07 16 00  20 54 25.022   +83 37 09.52  5.9357 5.7493  74.6 18.7 .267  40
2019 07 16 01  20 54 07.759   +83 37 23.98  5.9352 5.7489  74.6 18.7 .269  40
2019 07 16 02  20 53 50.468   +83 37 38.40  5.9347 5.7486  74.6 18.7 .271  40
2019 07 16 03  20 53 33.150   +83 37 52.76  5.9342 5.7482  74.6 18.7 .272  39
2019 07 16 04  20 53 15.805   +83 38 07.08  5.9337 5.7478  74.6 18.7 .274  39
2019 07 16 05  20 52 58.432   +83 38 21.34  5.9332 5.7475  74.6 18.7 .276  39
2019 07 16 06  20 52 41.031   +83 38 35.56  5.9328 5.7471  74.6 18.7 .278  39
2019 07 16 07  20 52 23.604   +83 38 49.73  5.9323 5.7468  74.6 18.7 .280  39
2019 07 16 08  20 52 06.149   +83 39 03.85  5.9318 5.7464  74.6 18.7 .282  39
2019 07 16 09  20 51 48.667   +83 39 17.91  5.9313 5.7461  74.6 18.7 .284  39
2019 07 16 10  20 51 31.157   +83 39 31.93  5.9308 5.7457  74.6 18.7 .286  39
2019 07 16 11  20 51 13.621   +83 39 45.90  5.9304 5.7454  74.6 18.7 .288  39
2019 07 16 12  20 50 56.057   +83 39 59.81  5.9299 5.7450  74.6 18.7 .290  39
2019 07 16 13  20 50 38.467   +83 40 13.68  5.9294 5.7447  74.7 18.7 .292  39
2019 07 16 14  20 50 20.849   +83 40 27.50  5.9289 5.7443  74.7 18.7 .294  39
2019 07 16 15  20 50 03.205   +83 40 41.26  5.9284 5.7439  74.7 18.7 .296  38
2019 07 16 16  20 49 45.533   +83 40 54.97  5.9280 5.7436  74.7 18.7 .298  38
2019 07 16 17  20 49 27.835   +83 41 08.64  5.9275 5.7432  74.7 18.7 .300  38
2019 07 16 18  20 49 10.109   +83 41 22.25  5.9270 5.7429  74.7 18.7 .302  38
2019 07 16 19  20 48 52.357   +83 41 35.81  5.9265 5.7425  74.7 18.7 .304  38
2019 07 16 20  20 48 34.579   +83 41 49.32  5.9260 5.7422  74.7 18.7 .306  38
2019 07 16 21  20 48 16.773   +83 42 02.78  5.9256 5.7418  74.7 18.7 .308  38
2019 07 16 22  20 47 58.941   +83 42 16.18  5.9251 5.7415  74.7 18.7 .310  38
2019 07 16 23  20 47 41.082   +83 42 29.54  5.9246 5.7411  74.7 18.7 .312  38
2019 07 17 00  20 47 23.197   +83 42 42.84  5.9241 5.7408  74.7 18.7 .314  38
2019 07 17 01  20 47 05.285   +83 42 56.09  5.9236 5.7404  74.7 18.7 .316  38
2019 07 17 02  20 46 47.347   +83 43 09.29  5.9232 5.7400  74.7 18.7 .318  38
2019 07 17 03  20 46 29.382   +83 43 22.44  5.9227 5.7397  74.7 18.7 .320  37
2019 07 17 04  20 46 11.391   +83 43 35.54  5.9222 5.7393  74.8 18.7 .322  37
2019 07 17 05  20 45 53.374   +83 43 48.58  5.9217 5.7390  74.8 18.7 .324  37
2019 07 17 06  20 45 35.330   +83 44 01.57  5.9212 5.7386  74.8 18.7 .326  37
2019 07 17 07  20 45 17.261   +83 44 14.51  5.9208 5.7383  74.8 18.7 .328  37
2019 07 17 08  20 44 59.165   +83 44 27.39  5.9203 5.7379  74.8 18.7 .330  37
2019 07 17 09  20 44 41.043   +83 44 40.23  5.9198 5.7376  74.8 18.7 .332  37
2019 07 17 10  20 44 22.895   +83 44 53.01  5.9193 5.7372  74.8 18.7 .334  37
2019 07 17 11  20 44 04.721   +83 45 05.74  5.9188 5.7369  74.8 18.7 .336  37
2019 07 17 12  20 43 46.521   +83 45 18.41  5.9184 5.7365  74.8 18.7 .338  37
2019 07 17 13  20 43 28.295   +83 45 31.03  5.9179 5.7361  74.8 18.7 .340  37
2019 07 17 14  20 43 10.044   +83 45 43.60  5.9174 5.7358  74.8 18.7 .342  37
2019 07 17 15  20 42 51.766   +83 45 56.11  5.9169 5.7354  74.8 18.7 .344  36
2019 07 17 16  20 42 33.463   +83 46 08.58  5.9164 5.7351  74.8 18.7 .346  36
2019 07 17 17  20 42 15.135   +83 46 20.98  5.9160 5.7347  74.8 18.7 .349  36
2019 07 17 18  20 41 56.781   +83 46 33.34  5.9155 5.7344  74.8 18.7 .351  36